Погода в Владимирском

Россия / Нижегородская область     56°49′13″N   45°07′02″E
темп.,
°C
ветер,
м/с
пор.,
м/с
влажн.,
%
обл.,
%
осадки,
мм/ч
давл.,
гПа
погр.,
м
9 мая, вс
вс900:00+10юв41291100 0.1 1009427
03:00+10юв41295100 0.1 1008359
06:00+10юв41492100 1.3 1007585
09:00+14ююв51278100 1.4 1007774
12:00+17ю5772100 0.4 10071036
15:00+13ююв41194100 4.4 1008671
18:00+13ю2898100 4.7 1009448
21:00+12зюз2499100 7.6 1010151
10 мая, пн
пн1000:00+9зсз4796100 0.9 1013397
03:00+7сз4994100 0.9 1017491
06:00+7ссз4993100 0.0 1020515
09:00+7ссз4889100 0.0 1023581
12:00+8с4684100 0.2 1025668
15:00+9ссв4678100 0.3 1026658
18:00+10ссв3777100 0.0 1027702
21:00+6св2894100 0.0 1029204
11 мая, вт
вт1100:00+5ссв310951 0.0 1029278
03:00+4ссв310960 0.0 1030241
06:00+6ссв411840 0.0 1031332
09:00+12св47640 0.0 1031639
12:00+17св45554 0.0 1030939
15:00+18св34522 0.0 10291038
18:00+17всв366451 0.0 1030353
21:00+11всв368788 0.0 103096
12 мая, ср
ср1200:00+10всв378853 0.0 1030137
03:00+9всв38860 0.0 1030144
06:00+12всв39810 0.0 1030217
09:00+18в466358 0.0 1029547
12:00+23вюв354854 0.0 10291330
15:00+24вюв464045 0.0 10282381
18:00+21в266187 0.0 1027162
21:00+16в227656 0.0 102735
13 мая, чт
чт1300:00+14в248599 0.0 102763
03:00+13в368180 0.0 1027116
06:00+15в397598 0.0 1027245
09:00+20юв485568 0.0 1026669
12:00+24юв583711 0.0 10252336
15:00+24юв5838100 0.0 10242167
18:00+21юв495098 0.0 1023638
21:00+17юв21072100 0.0 1023332